Notices

What's New in latest Release from April 7th, 2021:

- Updated Glossary, including Speed of Maximum Gust, and Total Hourly Precipitation

- Updated national and regional climate services offices contacts and prices information

- Addition of station inventory lists for 1981-2010, 1971-2000, and 1961-1990 Normals.

If you haven't already, please take our survey and provide feedback about our website: https://eccc.sondage-survey.ca/f/LanguageSelection.aspx?s=442ca660-fcf1-47c0-95a9-59707d6fd709

Hourly Data Report for January 25, 2021

SHEARWATER RCS
NOVA SCOTIA
Current Station Operator: ECCC - MSC

44°37'47.000" N
63°30'48.000" W
24.00 m
8205092
71264
AAW

Download Data

Hourly Data (January 2021)
Hourly Data Report for January 25, 2021
TIME
LST
Temp Definition
°C
Dew Point Definition
°C
Rel Hum Definition
%
Precip. Amount Definition
mm

Wind Dir Definition
10's deg

Wind Spd Definition
km/h
Visibility Definition
km
Stn Press Definition
kPa
Hmdx Definition


Wind Chill Definition


Weather Definition


00:00 -0.3 -2.4 86 0.0 31 19   99.57   -5 LegendNANA
01:00 -0.5 -1.7 92 0.0 30 20   99.58   -6 LegendNANA
02:00 -0.3 -2.7 84 0.2 31 24   99.62   -6 LegendNANA
03:00 -0.4 -3.1 82 0.0 30 24   99.68   -6 LegendNANA
04:00 -1.0 -3.7 82 0.0 30 22   99.74   -7 LegendNANA
05:00 -1.5 -4.3 81 0.0 31 23   99.80   -8 LegendNANA
06:00 -2.3 -4.9 82 0.0 31 21   99.83   -8 LegendNANA
07:00 -2.5 -4.9 83 0.0 30 24   99.89   -9 LegendNANA
08:00 -2.6 -5.0 84 0.0 31 23   99.95   -9 LegendNANA
09:00 -2.4 -5.0 82 0.0 31 22   100.01   -9 LegendNANA
10:00 -2.0 -4.8 81 0.0 30 17   100.06   -7 LegendNANA
11:00 -1.0 -4.9 75 0.0 31 16   100.10   -6 LegendNANA
12:00 0.0 -4.5 72 0.0 31 18   100.05   -5 LegendNANA
13:00 0.8 -4.0 70 0.0 31 20   100.02     LegendNANA
14:00 0.2 -4.2 72 0.0 31 22   100.03     LegendNANA
15:00 0.2 -4.2 72 0.0 31 21   100.07     LegendNANA
16:00 0.4 -4.1 72 0.0 32 21   100.14     LegendNANA
17:00 -0.2 -3.8 77 0.0 31 20   100.26   -5 LegendNANA
18:00 -0.3 -3.8 77 0.0 31 20   100.30   -6 LegendNANA
19:00 -0.1 -4.1 74 0.0 31 16   100.34   -5 LegendNANA
20:00 -0.3 -4.2 75 0.0 30 9   100.36   -3 LegendNANA
21:00 0.0 -3.9 75 0.0 30 18   100.39   -5 LegendNANA
22:00 -0.2 -3.9 76 0.0 30 20   100.40   -5 LegendNANA
23:00 -0.5 -4.1 77 0.0 31 24   100.40   -6 LegendNANA

Notes on Data Quality.

Legend

  • E = Estimated
  • M = Missing
  • NA = Not Available*
  • [empty] = Indicates an unobserved value
Date modified: